Location: Griffin Ranch
(33.6186°N, 110.6622°W)
Time: 00:00:07
(UTC-07:00)

Daily predictions for brighter satellites

Satellite Brightness Start Highest point End
(mag) Time Altitude Azimuth Time Altitude Azimuth Time Altitude Azimuth
ATLAS 3B R/B 4.5 00:57:28 29° N 00:57:28 29° N 01:01:00 10° NNE
Cosmos 2369 Rocket 4.3 02:03:17 10° N 02:06:18 22° NE 02:06:18 22° NE
Resurs 1-4 Rocket 4.3 02:12:32 10° NE 02:14:50 20° ENE 02:14:50 20° ENE
CENTAUR R/B 4.2 02:20:07 24° E 02:20:07 24° E 02:23:51 10° NE
CZ-3A R/B 3.8 02:44:24 68° W 02:45:58 78° NW 03:36:38 10° NE
CZ-4C R/B 4.5 02:51:33 15° NNW 02:51:33 15° NNW 02:53:47 10° N
ATLAS 5 CENTAUR R/B 3.4 02:56:50 33° NNE 02:56:50 33° NNE 02:59:38 10° NNE
Cosmos 839 Rocket 4.3 02:55:47 10° NNW 03:02:40 70° NNW 03:02:40 70° NNW
BREEZE-M DEB (TANK) 4.5 03:07:28 41° ESE 03:07:30 41° ESE 03:18:05 10° NE
SL-16 R/B 2.6 03:08:38 75° NNE 03:08:38 75° NNE 03:14:23 10° N
IRS-1D 4.5 03:14:54 10° N 03:18:23 41° NNW 03:18:23 41° NNW
SeaSat 1 4.4 03:19:42 10° ESE 03:23:51 28° ENE 03:28:02 10° N
Cosmos 1733 Rocket 4.3 03:21:49 10° N 03:24:37 37° NNE 03:24:37 37° NNE
CZ-2D R/B 2.6 03:21:12 10° N 03:25:08 49° NNW 03:25:08 49° NNW
Cosmos 1709 Rocket 3.9 03:20:09 10° N 03:26:15 77° WNW 03:26:15 77° WNW
ARIANE 5 R/B 3.6 03:22:28 10° N 03:25:47 35° NNW 03:25:47 35° NNW
USA 234 3.7 03:30:42 10° NNE 03:36:52 45° NW 03:38:01 41° WNW
CZ-4B R/B 4.4 03:34:55 10° NE 03:38:11 29° E 03:38:36 28° ESE
COSMOS 2406 3.3 03:40:43 60° S 03:41:46 76° ESE 03:47:31 10° NNE
Cosmos 1455 4.4 03:47:05 18° NNW 03:47:05 18° NNW 03:48:13 10° N
Atlas Centaur 2 3.0 03:47:32 27° SE 03:47:32 27° SE 03:50:55 10° E
Cosmos 1174 4.3 03:47:57 74° SW 03:48:28 86° WNW 03:53:12 10° NNE
Cosmos 2074 Rocket 4.2 03:42:59 10° N 03:49:11 67° E 03:55:22 10° SSE
CZ-2D R/B 4.0 03:46:51 10° N 03:50:17 50° NNW 03:50:17 50° NNW
Cosmos 2369 Rocket 4.1 03:46:51 10° NW 03:47:59 16° NW 03:47:59 16° NW
Cosmos 2184 Rocket 4.2 03:48:08 10° N 03:54:30 72° E 04:00:49 10° SSE
Cosmos 1908 Rocket 4.0 03:51:40 10° N 03:56:00 58° E 03:58:56 19° SSE
Resurs 1-4 Rocket 3.1 03:52:01 10° N 03:55:55 31° NW 03:55:55 31° NW
CZ-4B R/B 3.3 03:53:31 10° NNE 03:58:48 70° ESE 04:01:33 29° S
OAO 3 Copernicus 4.1 03:58:32 68° SW 03:58:55 72° SSW 04:03:57 10° ESE
CZ-4B DEB 4.5 03:53:56 10° NNE 03:59:22 65° ESE 04:02:48 23° S
SL-27 R/B 3.9 04:00:54 30° NNW 04:00:54 30° NNW 04:03:02 10° N
Cosmos 2221 Rocket 4.0 03:58:30 33° SSE 04:00:16 60° E 04:04:38 10° NNE
Okean O Rocket 1.5 03:58:26 10° N 04:02:55 79° WNW 04:03:30 65° SW
SL-08 ROCKET BODY 4.5 03:58:00 10° N 04:04:04 81° E 04:10:12 10° S
ADEOS Rocket 4.3 03:58:57 10° NNE 04:06:31 51° E 04:13:51 10° S
PSLV R/B 3.9 04:03:27 10° N 04:06:48 58° NW 04:06:48 58° NW
CENTAUR R/B 2.9 04:07:18 37° W 04:08:54 44° NW 04:15:19 10° NNE
ARGOS Delta rocket 3.8 04:04:49 10° N 04:09:00 49° WNW 04:09:00 49° WNW
Cosmos 1408 2.8 04:05:27 10° N 04:09:12 73° E 04:10:50 32° SSE
ADEOS II 3.5 04:04:26 10° NNE 04:09:14 35° E 04:14:00 10° SSE
Cosmos 1703 Rocket 3.5 04:08:10 42° S 04:09:38 89° SE 04:14:09 10° N
USA 32 4.1 04:06:23 20° S 04:10:02 80° E 04:15:17 10° N
Okean-O 4.1 04:05:58 10° NNE 04:10:02 35° E 04:14:04 10° SSE
Cosmos 1943 Rocket 2.1 04:05:11 10° NNW 04:10:48 66° WSW 04:16:20 10° S
Sich 1 Rocket 3.6 04:14:17 10° NNW 04:18:35 56° W 04:19:51 40° SSW
Cosmos 1825 2.0 04:19:54 10° NNW 04:23:41 67° W 04:25:14 33° SSW
Cosmos 2285 Rocket 3.9 04:19:37 10° NNW 04:26:04 83° WSW 04:32:25 10° SSE
IRS-1C Rocket 4.5 04:24:05 10° N 04:29:02 43° WNW 04:31:10 29° WSW
Cosmos 676 Rocket 4.3 04:26:19 11° S 04:31:18 67° ESE 04:36:27 10° NNE
PSLV R/B 3.7 04:28:19 10° NNE 04:32:42 75° E 04:37:05 10° S
PAYLOAD B 4.5 04:30:53 10° N 04:36:11 48° WNW 04:39:38 21° SW
Cosmos 1656 Rocket 3.5 04:34:25 10° NNW 04:39:51 82° WSW 04:45:15 10° SSE
ATLAS 5 CENTAUR R/B 4.0 04:38:24 10° WNW 04:40:02 12° NW 04:41:57 10° NNW
Okean 1-7 3.0 04:40:30 17° SSW 04:43:39 57° W 04:47:56 10° N
Cosmos 407 Rocket 3.6 04:44:29 16° SSW 04:48:31 57° WNW 04:53:42 10° N
BREEZE-M DEB (TANK) 4.2 04:47:42 20° WNW 04:48:52 27° NNW 04:52:41 10° NE
Cosmos 1862 4.3 04:47:26 10° NNW 04:50:47 26° W 04:52:21 20° SW
SL-16 R/B 4.3 04:53:45 11° WNW 04:53:45 11° WNW 04:54:32 10° WNW
CZ-2C R/B 4.5 04:50:13 11° SSW 04:53:50 28° W 04:57:40 10° NW
Okean 2 Rocket 3.1 04:49:55 10° NNW 04:54:23 62° W 04:58:50 10° S
SeaSat 1 3.1 04:56:55 10° S 05:01:14 31° WSW 05:05:36 10° NW
EXPRESS MD2 4.3 05:05:29 10° SSW 05:07:50 33° SE 05:11:34 10° ENE
Cosmos 1140 Rocket 3.6 05:02:46 10° S 05:07:52 77° ESE 05:13:00 10° NNE
GPS 2-05 Rocket1 2.7 05:05:59 16° W 05:08:37 76° N 05:11:54 10° ENE
Cosmos 1674 Rocket 4.2 05:04:49 10° S 05:09:12 62° E 05:13:34 10° NNE
Feng Yun 1-1 Rocket 4.3 05:04:36 10° N 05:09:53 59° WNW 05:15:14 10° SSW
Cosmos 1782 Rocket 4.4 05:09:33 10° NNW 05:13:14 27° W 05:16:53 10° SSW
Meteor 1-14 Rocket 4.4 05:11:31 10° NNW 05:17:13 55° W 05:22:59 10° S
COSMOS 2487 4.0 05:15:21 12° WSW 05:17:42 20° WNW 05:20:24 10° NNW
Cosmos 2181 Rocket 4.2 05:13:18 10° SSW 05:19:36 56° W 05:25:54 10° N
Meteor PRIRODA 4.4 05:18:14 10° N 05:21:41 35° WNW 05:25:07 10° SW
MOS 1 Rocket 3.0 05:17:47 10° N 05:22:05 85° W 05:26:24 10° SSW
Ariane Rocket 3.5 05:19:13 10° NNE 05:24:16 65° ESE 05:29:18 10° S
Cosmos 614 Rocket 4.2 05:21:46 10° S 05:26:51 76° ESE 05:31:57 10° NNE
Cosmos 1782 2.8 05:23:31 10° SSW 05:27:30 66° W 05:31:32 10° N
Cosmos 1242 Rocket 4.3 05:26:28 10° SSE 05:29:52 39° E 05:33:21 10° NNE
BREEZE-M DEB (TANK) 4.2 05:21:38 10° NW 05:39:58 65° SW 05:44:28 10° SE
CZ-3 R/B 4.1 05:40:07 10° W 06:00:03 25° SW 06:07:19 10° S
